| time (UTC) | temp C | wind direction | speed KPH | gust KPH | rain 1hr cm | rain 24hr cm | rain mn cm | humidity % | barometer mb |
| 20260505035317 | 14 | 137 | 0.0 | 17.7 | 0.00 | 0.00 | 0.00 | 60 | 1013.0 |
| 20260505034814 | 15 | 243 | 11.3 | 14.5 | 0.00 | 0.00 | 0.00 | 59 | 1013.0 |
| 20260505034311 | 15 | 149 | 8.0 | 16.1 | 0.00 | 0.00 | 0.00 | 59 | 1012.7 |
| 20260505033808 | 15 | 151 | 4.8 | 16.1 | 0.00 | 0.00 | 0.00 | 56 | 1012.7 |
| 20260505033305 | 15 | 170 | 3.2 | 6.4 | 0.00 | 0.00 | 0.00 | 57 | 1012.8 |
| 20260505032803 | 15 | 243 | 4.8 | 9.7 | 0.00 | 0.00 | 0.00 | 56 | 1012.7 |
| 20260505032259 | 15 | 212 | 0.0 | 6.4 | 0.00 | 0.00 | 0.00 | 56 | 1012.5 |
| 20260505031756 | 15 | 220 | 4.8 | 9.7 | 0.00 | 0.00 | 0.00 | 54 | 1012.4 |
| 20260505031253 | 15 | 234 | 4.8 | 9.7 | 0.00 | 0.00 | 0.00 | 53 | 1012.5 |
| 20260505030750 | 15 | 256 | 11.3 | 14.5 | 0.00 | 0.00 | 0.00 | 52 | 1012.3 |
| 20260505030246 | 16 | 50 | 4.8 | 12.9 | 0.00 | 0.00 | 0.00 | 53 | 1012.3 |
| 20260505025741 | 16 | 133 | 4.8 | 12.9 | 0.00 | 0.00 | 0.00 | 49 | 1012.2 |
| 20260505025240 | 17 | 126 | 6.4 | 9.7 | 0.00 | 0.00 | 0.00 | 41 | 1011.9 |
| 20260505024738 | 17 | 83 | 4.8 | 11.3 | 0.00 | 0.00 | 0.00 | 38 | 1011.9 |
| 20260505024235 | 17 | 151 | 4.8 | 16.1 | 0.00 | 0.00 | 0.00 | 38 | 1011.8 |
| 20260505023732 | 17 | 113 | 3.2 | 11.3 | 0.00 | 0.00 | 0.00 | 38 | 1011.8 |
| 20260505023229 | 17 | 103 | 1.6 | 9.7 | 0.00 | 0.00 | 0.00 | 38 | 1011.7 |
| 20260505022727 | 17 | 139 | 3.2 | 6.4 | 0.00 | 0.00 | 0.00 | 38 | 1011.5 |
| 20260505022223 | 17 | 135 | 8.0 | 11.3 | 0.00 | 0.00 | 0.00 | 38 | 1011.6 |
| 20260505021720 | 17 | 95 | 3.2 | 8.0 | 0.00 | 0.00 | 0.00 | 38 | 1011.5 |
| 20260505021217 | 17 | 116 | 4.8 | 14.5 | 0.00 | 0.00 | 0.00 | 38 | 1011.5 |
| 20260505020713 | 17 | 134 | 6.4 | 12.9 | 0.00 | 0.00 | 0.00 | 38 | 1011.4 |
| 20260505020208 | 17 | 132 | 14.5 | 14.5 | 0.00 | 0.00 | 0.00 | 38 | 1011.5 |
| 20260505015706 | 17 | 145 | 4.8 | 20.9 | 0.00 | 0.00 | 0.00 | 38 | 1011.5 |
| 20260505015203 | 17 | 135 | 9.7 | 17.7 | 0.00 | 0.00 | 0.00 | 38 | 1011.7 |
| 20260505014659 | 17 | 123 | 8.0 | 20.9 | 0.00 | 0.00 | 0.00 | 38 | 1011.2 |
| 20260505014156 | 17 | 140 | 8.0 | 27.4 | 0.00 | 0.00 | 0.00 | 38 | 1011.1 |
| 20260505013654 | 18 | 147 | 11.3 | 11.3 | 0.00 | 0.00 | 0.00 | 38 | 1011.2 |
| 20260505013151 | 18 | 195 | 3.2 | 8.0 | 0.00 | 0.00 | 0.00 | 38 | 1011.6 |
| 20260505012649 | 18 | 154 | 1.6 | 8.0 | 0.00 | 0.00 | 0.00 | 38 | 1011.6 |
| 20260505012146 | 18 | 119 | 11.3 | 17.7 | 0.00 | 0.00 | 0.00 | 38 | 1011.6 |
| 20260505011641 | 17 | 129 | 4.8 | 14.5 | 0.00 | 0.00 | 0.00 | 38 | 1011.5 |
| 20260505011139 | 18 | 120 | 20.9 | 25.7 | 0.00 | 0.00 | 0.00 | 38 | 1011.7 |
| 20260505010639 | 18 | 120 | 6.4 | 24.1 | 0.00 | 0.00 | 0.00 | 38 | 1011.5 |
| 20260505010136 | 18 | 134 | 11.3 | 24.1 | 0.00 | 0.00 | 0.00 | 38 | 1011.6 |
| 20260505005632 | 18 | 131 | 12.9 | 20.9 | 0.00 | 0.00 | 0.00 | 38 | 1011.5 |
| 20260505005129 | 18 | 141 | 16.1 | 24.1 | 0.00 | 0.00 | 0.00 | 34 | 1011.8 |
| 20260505004626 | 20 | 122 | 8.0 | 16.1 | 0.00 | 0.00 | 0.00 | 34 | 1011.7 |
| 20260505004123 | 20 | 127 | 4.8 | 11.3 | 0.00 | 0.00 | 0.00 | 30 | 1011.6 |
| 20260505003620 | 20 | 140 | 3.2 | 11.3 | 0.00 | 0.00 | 0.00 | 29 | 1011.6 |
| 20260505003118 | 20 | 278 | 0.0 | 4.8 | 0.00 | 0.00 | 0.00 | 31 | 1011.5 |
| 20260505002614 | 20 | 184 | 0.0 | 3.2 | 0.00 | 0.00 | 0.00 | 31 | 1011.5 |
| 20260505002112 | 19 | 119 | 0.0 | 9.7 | 0.00 | 0.00 | 0.00 | 31 | 1011.7 |
| 20260505001609 | 19 | 258 | 8.0 | 9.7 | 0.00 | 0.00 | 0.00 | 31 | 1011.7 |
| 20260505001107 | 20 | 103 | 0.0 | 3.2 | 0.00 | 0.00 | 0.00 | 31 | 1011.6 |
| 20260505000603 | 20 | 194 | 0.0 | 1.6 | 0.00 | 0.00 | 0.00 | 30 | 1011.7 |
| 20260504235557 | 20 | 283 | 0.0 | 6.4 | 0.00 | 0.00 | 0.00 | 30 | 1011.5 |
| 20260504235054 | 20 | 293 | 3.2 | 6.4 | 0.00 | 0.00 | 0.00 | 30 | 1011.7 |
| 20260504234551 | 20 | 7 | 3.2 | 8.0 | 0.00 | 0.00 | 0.00 | 31 | 1011.7 |
| 20260504234048 | 20 | 274 | 3.2 | 8.0 | 0.00 | 0.00 | 0.00 | 30 | 1011.9 |
| 20260504233543 | 20 | 120 | 1.6 | 4.8 | 0.00 | 0.00 | 0.00 | 32 | 1011.6 |
| 20260504233041 | 20 | 15 | 6.4 | 8.0 | 0.00 | 0.00 | 0.00 | 33 | 1011.7 |
| 20260504232538 | 20 | 61 | 4.8 | 11.3 | 0.00 | 0.00 | 0.00 | 33 | 1011.4 |
| 20260504232036 | 20 | 65 | 3.2 | 12.9 | 0.00 | 0.00 | 0.00 | 33 | 1011.2 |
| 20260504231532 | 20 | 32 | 6.4 | 8.0 | 0.00 | 0.00 | 0.00 | 33 | 1011.6 |
| 20260504231028 | 20 | 151 | 11.3 | 11.3 | 0.00 | 0.00 | 0.00 | 33 | 1011.6 |
| 20260504230524 | 20 | 194 | 4.8 | 11.3 | 0.00 | 0.00 | 0.00 | 33 | 1011.6 |
| 20260504230023 | 20 | 23 | 6.4 | 9.7 | 0.00 | 0.00 | 0.00 | 33 | 1011.5 |
| 20260504225520 | 20 | 303 | 3.2 | 14.5 | 0.00 | 0.00 | 0.00 | 32 | 1011.6 |
| 20260504225017 | 20 | 204 | 3.2 | 14.5 | 0.00 | 0.00 | 0.00 | 32 | 1011.7 |
| 20260504224514 | 20 | 217 | 3.2 | 8.0 | 0.00 | 0.00 | 0.00 | 32 | 1011.8 |
| 20260504224011 | 20 | 334 | 3.2 | 20.9 | 0.00 | 0.00 | 0.00 | 33 | 1011.6 |
| 20260504223507 | 20 | 96 | 3.2 | 17.7 | 0.00 | 0.00 | 0.00 | 32 | 1011.7 |
| 20260504223003 | 20 | 304 | 6.4 | 20.9 | 0.00 | 0.00 | 0.00 | 32 | 1012.0 |
| 20260504222500 | 21 | 1 | 9.7 | 20.9 | 0.00 | 0.00 | 0.00 | 31 | 1011.9 |
| 20260504221958 | 22 | 356 | 9.7 | 17.7 | 0.00 | 0.00 | 0.00 | 29 | 1011.7 |
| 20260504221455 | 22 | 90 | 3.2 | 20.9 | 0.00 | 0.00 | 0.00 | 30 | 1011.8 |
| 20260504220952 | 22 | 3 | 8.0 | 20.9 | 0.00 | 0.00 | 0.00 | 30 | 1011.8 |
| 20260504220448 | 23 | 39 | 6.4 | 12.9 | 0.00 | 0.00 | 0.00 | 28 | 1011.9 |
| 20260504215945 | 21 | 326 | 3.2 | 11.3 | 0.00 | 0.00 | 0.00 | 29 | 1011.9 |
| 20260504215442 | 22 | 19 | 8.0 | 12.9 | 0.00 | 0.00 | 0.00 | 28 | 1011.8 |
| 20260504214938 | 22 | 25 | 6.4 | 11.3 | 0.00 | 0.00 | 0.00 | 29 | 1011.9 |
| 20260504214435 | 22 | 308 | 0.0 | 11.3 | 0.00 | 0.00 | 0.00 | 30 | 1012.0 |
| 20260504213931 | 21 | 319 | 8.0 | 8.0 | 0.00 | 0.00 | 0.00 | 30 | 1011.8 |
| 20260504213427 | 23 | 274 | 3.2 | 8.0 | 0.00 | 0.00 | 0.00 | 29 | 1012.2 |
| 20260504212925 | 23 | 318 | 9.7 | 17.7 | 0.00 | 0.00 | 0.00 | 28 | 1011.9 |
| 20260504212420 | 22 | 229 | 3.2 | 11.3 | 0.00 | 0.00 | 0.00 | 27 | 1012.2 |
| 20260504211919 | 22 | 166 | 4.8 | 9.7 | 0.00 | 0.00 | 0.00 | 28 | 1011.9 |
| 20260504211415 | 22 | 232 | 3.2 | 17.7 | 0.00 | 0.00 | 0.00 | 27 | 1011.9 |
| 20260504210912 | 21 | 157 | 4.8 | 11.3 | 0.00 | 0.00 | 0.00 | 27 | 1012.0 |
| 20260504210409 | 21 | 231 | 9.7 | 11.3 | 0.00 | 0.00 | 0.00 | 31 | 1012.0 |
| 20260504205906 | 21 | 255 | 3.2 | 22.5 | 0.00 | 0.00 | 0.00 | 31 | 1012.2 |
| 20260504205404 | 21 | 230 | 8.0 | 9.7 | 0.00 | 0.00 | 0.00 | 31 | 1012.3 |
| 20260504204902 | 21 | 180 | 3.2 | 14.5 | 0.00 | 0.00 | 0.00 | 30 | 1012.4 |
| 20260504204400 | 21 | 203 | 4.8 | 19.3 | 0.00 | 0.00 | 0.00 | 30 | 1012.3 |
| 20260504203859 | 22 | 240 | 8.0 | 12.9 | 0.00 | 0.00 | 0.00 | 30 | 1012.5 |
| 20260504203355 | 22 | 235 | 6.4 | 16.1 | 0.00 | 0.00 | 0.00 | 29 | 1012.3 |
| 20260504202852 | 22 | 229 | 4.8 | 14.5 | 0.00 | 0.00 | 0.00 | 28 | 1012.3 |
| 20260504202349 | 22 | 180 | 4.8 | 19.3 | 0.00 | 0.00 | 0.00 | 29 | 1012.3 |
| 20260504201845 | 22 | 253 | 8.0 | 17.7 | 0.00 | 0.00 | 0.00 | 29 | 1012.2 |
| 20260504201343 | 22 | 159 | 8.0 | 12.9 | 0.00 | 0.00 | 0.00 | 28 | 1012.6 |
| 20260504200840 | 22 | 158 | 8.0 | 11.3 | 0.00 | 0.00 | 0.00 | 28 | 1012.7 |
| 20260504200337 | 23 | 138 | 8.0 | 9.7 | 0.00 | 0.00 | 0.00 | 27 | 1012.4 |
| 20260504195833 | 22 | 133 | 4.8 | 19.3 | 0.00 | 0.00 | 0.00 | 28 | 1012.4 |
| 20260504195328 | 22 | 226 | 9.7 | 16.1 | 0.00 | 0.00 | 0.00 | 26 | 1012.6 |
| 20260504194826 | 22 | 172 | 0.0 | 20.9 | 0.00 | 0.00 | 0.00 | 28 | 1012.6 |
| 20260504194322 | 22 | 148 | 8.0 | 20.9 | 0.00 | 0.00 | 0.00 | 30 | 1012.8 |
| 20260504193818 | 22 | 148 | 6.4 | 17.7 | 0.00 | 0.00 | 0.00 | 28 | 1012.7 |
| 20260504193315 | 22 | 218 | 9.7 | 17.7 | 0.00 | 0.00 | 0.00 | 28 | 1012.8 |
| 20260504192814 | 22 | 156 | 6.4 | 14.5 | 0.00 | 0.00 | 0.00 | 28 | 1013.0 |
| 20260504192311 | 22 | 165 | 4.8 | 9.7 | 0.00 | 0.00 | 0.00 | 29 | 1013.0 |
| 20260504191810 | 22 | 127 | 19.3 | 20.9 | 0.00 | 0.00 | 0.00 | 29 | 1013.0 |
| 20260504191307 | 21 | 127 | 9.7 | 19.3 | 0.00 | 0.00 | 0.00 | 31 | 1013.1 |
| 20260504190802 | 21 | 237 | 3.2 | 12.9 | 0.00 | 0.00 | 0.00 | 30 | 1013.2 |
| 20260504190259 | 21 | 187 | 9.7 | 14.5 | 0.00 | 0.00 | 0.00 | 30 | 1013.0 |
| 20260504185755 | 21 | 135 | 3.2 | 9.7 | 0.00 | 0.00 | 0.00 | 33 | 1013.5 |
| 20260504185252 | 21 | 126 | 8.0 | 16.1 | 0.00 | 0.00 | 0.00 | 30 | 1013.4 |
| 20260504184748 | 21 | 106 | 4.8 | 17.7 | 0.00 | 0.00 | 0.00 | 31 | 1013.3 |
| 20260504184244 | 21 | 148 | 0.0 | 14.5 | 0.00 | 0.00 | 0.00 | 33 | 1013.4 |
| 20260504183740 | 21 | 122 | 30.6 | 33.8 | 0.00 | 0.00 | 0.00 | 31 | 1013.6 |
| 20260504183237 | 20 | 132 | 8.0 | 25.7 | 0.00 | 0.00 | 0.00 | 31 | 1013.5 |
| 20260504182735 | 21 | 163 | 4.8 | 33.8 | 0.00 | 0.00 | 0.00 | 31 | 1013.6 |
| 20260504182232 | 21 | 147 | 8.0 | 12.9 | 0.00 | 0.00 | 0.00 | 31 | 1013.6 |
| 20260504181730 | 21 | 232 | 8.0 | 12.9 | 0.00 | 0.00 | 0.00 | 32 | 1013.8 |
| 20260504181227 | 20 | 192 | 4.8 | 12.9 | 0.00 | 0.00 | 0.00 | 33 | 1013.8 |
| 20260504180726 | 20 | 148 | 6.4 | 16.1 | 0.00 | 0.00 | 0.00 | 32 | 1014.0 |
| 20260504180224 | 21 | 124 | 6.4 | 9.7 | 0.00 | 0.00 | 0.00 | 33 | 1014.0 |
| 20260504175722 | 20 | 96 | 3.2 | 12.9 | 0.00 | 0.00 | 0.00 | 34 | 1014.2 |
| 20260504175218 | 19 | 151 | 8.0 | 17.7 | 0.00 | 0.00 | 0.00 | 33 | 1014.1 |
| 20260504174716 | 20 | 131 | 6.4 | 11.3 | 0.00 | 0.00 | 0.00 | 30 | 1014.1 |
| 20260504174214 | 20 | 132 | 8.0 | 19.3 | 0.00 | 0.00 | 0.00 | 32 | 1014.1 |
| 20260504173710 | 20 | 131 | 6.4 | 11.3 | 0.00 | 0.00 | 0.00 | 32 | 1014.6 |
| 20260504173207 | 20 | 133 | 8.0 | 19.3 | 0.00 | 0.00 | 0.00 | 34 | 1014.7 |
| 20260504172704 | 20 | 127 | 6.4 | 11.3 | 0.00 | 0.00 | 0.00 | 31 | 1014.4 |
| 20260504172200 | 20 | 289 | 4.8 | 11.3 | 0.00 | 0.00 | 0.00 | 34 | 1014.6 |
| 20260504171657 | 19 | 102 | 0.0 | 16.1 | 0.00 | 0.00 | 0.00 | 34 | 1014.7 |
| 20260504171154 | 20 | 250 | 3.2 | 11.3 | 0.00 | 0.00 | 0.00 | 34 | 1014.7 |
| 20260504170650 | 19 | 122 | 4.8 | 11.3 | 0.00 | 0.00 | 0.00 | 34 | 1014.4 |
| 20260504170148 | 20 | 145 | 0.0 | 14.5 | 0.00 | 0.00 | 0.00 | 37 | 1014.8 |
| 20260504160106 | 19 | 90 | 0.0 | 3.2 | 0.00 | 0.00 | 0.00 | 40 | 1015.0 |
| 20260504151038 | 16 | 270 | 0.0 | 3.2 | 0.00 | 0.00 | 0.00 | 45 | 1015.4 |
| 20260504150536 | 16 | 127 | 3.2 | 4.8 | 0.00 | 0.00 | 0.00 | 47 | 1015.1 |
| 20260504141002 | 14 | 135 | 4.8 | 9.7 | 0.00 | 0.00 | 0.00 | 52 | 1015.1 |
| 20260504140459 | 14 | 134 | 6.4 | 6.4 | 0.00 | 0.00 | 0.00 | 51 | 1015.3 |
| 20260504130423 | 11 | 20 | 0.0 | 4.8 | 0.00 | 0.00 | 0.00 | 57 | 1015.1 |
| 20260504110310 | 14 | 138 | 4.8 | 11.3 | 0.00 | 0.00 | 0.00 | 51 | 1015.4 |
| 20260504100228 | 12 | 26 | 1.6 | 4.8 | 0.00 | 0.00 | 0.00 | 52 | 1015.1 |
| 20260504081616 | 13 | 144 | 0.0 | 4.8 | 0.00 | 0.00 | 0.00 | 41 | 1014.7 |
| 20260504081112 | 13 | 102 | 1.6 | 6.4 | 0.00 | 0.00 | 0.00 | 42 | 1015.1 |
| 20260504080609 | 12 | 81 | 0.0 | 4.8 | 0.00 | 0.00 | 0.00 | 43 | 1015.1 |
| 20260504080105 | 12 | 22 | 4.8 | 6.4 | 0.00 | 0.00 | 0.00 | 48 | 1015.0 |
| 20260504050421 | 15 | 71 | 0.0 | 6.4 | 0.00 | 0.00 | 0.00 | 30 | 1014.3 |
| 20260504045918 | 15 | 11 | 6.4 | 6.4 | 0.00 | 0.00 | 0.00 | 29 | 1014.2 |
| 20260504045414 | 15 | 0 | 0.0 | 4.8 | 0.00 | 0.00 | 0.00 | 29 | 1014.4 |
| 20260504044910 | 15 | 119 | 0.0 | 4.8 | 0.00 | 0.00 | 0.00 | 30 | 1014.4 |
| 20260504044408 | 15 | 23 | 0.0 | 3.2 | 0.00 | 0.00 | 0.00 | 30 | 1014.6 |
| 20260504043905 | 15 | 90 | 0.0 | 3.2 | 0.00 | 0.00 | 0.00 | 29 | 1014.6 |
| 20260504043402 | 15 | 24 | 0.0 | 4.8 | 0.00 | 0.00 | 0.00 | 30 | 1014.7 |
| 20260504042859 | 15 | 35 | 0.0 | 6.4 | 0.00 | 0.00 | 0.00 | 29 | 1014.6 |
| 20260504042355 | 14 | 0 | 3.2 | 4.8 | 0.00 | 0.00 | 0.00 | 32 | 1014.6 |
| 20260504041852 | 14 | 355 | 0.0 | 4.8 | 0.00 | 0.00 | 0.00 | 35 | 1014.4 |
| 20260504041348 | 14 | 54 | 1.6 | 3.2 | 0.00 | 0.00 | 0.00 | 34 | 1014.4 |
| 20260504040844 | 14 | 8 | 0.0 | 3.2 | 0.00 | 0.00 | 0.00 | 31 | 1014.4 |
| 20260504040342 | 14 | 63 | 1.6 | 3.2 | 0.00 | 0.00 | 0.00 | 34 | 1014.6 |
| 20260504035837 | 14 | 20 | 0.0 | 0.0 | 0.00 | 0.00 | 0.00 | 36 | 1014.2 |